[[{"header":{"parameterUnit":"m.s-1","parameterCategory":2,"la1":30.2991,"la2":30.254,"lo1":-89.0895,"lo2":-89.0444,"dy":0.0017,"dx":0.0017,"nx":28,"ny":28,"refTime":"2026-02-05T09:00:00:Z","depth":"0","parameterNumber":2,"parameterNumberName":"U-component_of_CURRENTS"},"data":[0,0,0,0,0,0,0,0,0,0,0,0,0,0,0,0,0,0,0,0,0,0,0,0,0,0,0,0,0,0,0,0,0,0,0,0,0,0,0,0,0,0,0,0,0,0,0,0,0,0,0,0,0,0,0,0,0,0,0.1757,0.1758,0,0.1794,0.1794,0.1794,0.1835,0.1836,0.1838,0.1839,0.1952,0.1953,0.1955,0,0,0,0,0,0,0,0,0,0,0,0,0,0.1677,0.1678,0.1757,0.1758,0.1759,0.1794,0.1794,0.1793,0.1835,0.1836,0.1838,0.184,0.1951,0.1953,0.1955,0,0,0,0,0,0,0,0,0,0,0,0,0,0.1704,0.1678,0.1756,0.1791,0.1795,0.1794,0.1794,0.1793,0.1834,0.1836,0.1839,0.1841,0.1951,0.1953,0.1955,0.1926,0,0,0.1963,0.1964,0,0,0,0,0,0,0,0,0.1702,0.1706,0.1785,0.1789,0.1794,0.1821,0.1808,0.1845,0.1834,0.1809,0.1839,0.1842,0.192,0.1925,0.1912,0.1931,0.1936,0.1963,0.1965,0.1966,0.1966,0,0,0,0,0,0,0,0.1701,0.1704,0.1762,0.1786,0.1792,0.1791,0.1796,0.1814,0.1845,0.1812,0.1817,0.1836,0.1922,0.1909,0.1915,0.1938,0.1963,0.1965,0.1967,0.1968,0.2004,0.2003,0,0,0,0,0,0,0.1715,0.1702,0.1761,0.1764,0.1763,0.1791,0.1797,0.1802,0.1844,0.1855,0.1834,0.1838,0.1904,0.1912,0.192,0.1963,0.1966,0.1968,0.1969,0.2004,0.2003,0.2003,0,0,0,0,0,0,0.1713,0.1719,0.1759,0.1743,0.1749,0.1792,0.1796,0.1802,0.1801,0.1862,0.1872,0.183,0.1906,0.1916,0.1949,0.1965,0.1969,0.1971,0.2005,0.2004,0.2003,0.2002,0,0,0,0,0,0,0.171,0.1717,0.1703,0.1743,0.1751,0.1747,0.1795,0.1801,0.1813,0.1818,0.1862,0.1874,0.1909,0.1945,0.1951,0.1969,0.1973,0.2005,0.2004,0.2003,0.2002,0.2001,0.2,0,0,0,0,0,0.1707,0.1669,0.1702,0.1709,0.1737,0.1747,0.1748,0.178,0.1811,0.179,0.1841,0.1873,0.1944,0.1946,0.1954,0.1973,0.2006,0.2005,0.2003,0.2003,0.2001,0.2,0,0,0,0,0,0,0.1599,0.1673,0.1708,0.1689,0.172,0.1758,0.1737,0.1774,0.1791,0.1801,0.1865,0.1878,0.1915,0.193,0.1932,0.1976,0.198,0.198,0.1977,0.1975,0.1974,0.203,0.1975,0,0,0,0,0,0.158,0.159,0.165,0.1635,0.1646,0.1694,0.1699,0.1727,0.1763,0.1772,0.1814,0.1859,0.1909,0.1933,0.196,0.1978,0.2021,0.1993,0.1991,0.199,0.2038,0.2099,0.2109,0.1999,0.1999,0.1999,0,0,0.1543,0.1578,0.1587,0.1617,0.1639,0.1664,0.1698,0.1699,0.1735,0.1782,0.1817,0.1851,0.191,0.1942,0.1959,0.1964,0.2034,0.1989,0.1988,0.2038,0.2099,0.211,0.212,0.1998,0.1999,0.1999,0,0,0.1502,0.1497,0.1519,0.1538,0.1583,0.1608,0.1614,0.1656,0.1681,0.1707,0.1777,0.1834,0.1858,0.1941,0.1981,0.1984,0.2022,0.1968,0.2018,0.2074,0.2085,0.2095,0.2129,0.2142,0.1972,0.1972,0.1972,0,0.1467,0.1506,0.1516,0.1542,0.1571,0.1593,0.1628,0.164,0.1692,0.1739,0.1712,0.184,0.1873,0.2003,0.2007,0.1991,0.2014,0.2021,0.2077,0.2088,0.2099,0.2131,0.2146,0.1971,0.1971,0.1971,0.1971,0,0.1469,0.1499,0.1494,0.1561,0.1565,0.1582,0.1626,0.1634,0.1656,0.1711,0.1802,0.1849,0.1947,0.1948,0.1983,0.2093,0.2079,0.2065,0.2089,0.211,0.2141,0.2157,0.1971,0.1971,0.1971,0.1971,0,0,0.1444,0.1503,0.151,0.1562,0.1587,0.1604,0.1629,0.1704,0.1767,0.1784,0.1891,0.1967,0.2011,0.2063,0.2114,0.2169,0.2241,0.2151,0.2154,0.2201,0.2351,0.2282,0.2293,0.2229,0.2232,0.2235,0.233,0,0.1478,0.1538,0.1557,0.162,0.1662,0.1676,0.1708,0.1759,0.1798,0.1879,0.1961,0.2054,0.205,0.2104,0.2163,0.2252,0.2288,0.2217,0.2312,0.2316,0.2266,0.2311,0.2237,0.2312,0.2346,0.2349,0.2351,0,0.1511,0.1557,0.1621,0.1701,0.1719,0.1745,0.1817,0.1855,0.1953,0.1985,0.2089,0.2143,0.2293,0.2231,0.24,0.2351,0.2355,0.2384,0.2387,0.2352,0.2279,0.2302,0.234,0.2333,0.2375,0.2373,0.2372,0,0.1523,0.1613,0.1671,0.1692,0.176,0.1797,0.1832,0.1902,0.1944,0.2077,0.211,0.228,0.2359,0.2426,0.2491,0.2447,0.2632,0.2569,0.2506,0.25,0.2478,0.2464,0.2546,0.2643,0.2642,0.2642,0.2642,0,0.1562,0.1621,0.1688,0.1718,0.1791,0.1828,0.1903,0.1952,0.2031,0.2093,0.2184,0.2257,0.2404,0.251,0.2542,0.2603,0.2671,0.2553,0.2539,0.2466,0.245,0.2475,0.2507,0.2646,0.2645,0.2644,0.2644,0,0.1572,0.1615,0.1689,0.1769,0.1796,0.1842,0.1906,0.1954,0.2026,0.2104,0.2142,0.2282,0.244,0.2562,0.2703,0.2659,0.2676,0.2704,0.2603,0.2574,0.2463,0.2498,0.2448,0.24,0.2655,0.2654,0.2653,0,0.159,0.1625,0.1698,0.1722,0.1764,0.183,0.1859,0.1939,0.198,0.2099,0.2135,0.2311,0.2383,0.2586,0.2654,0.2732,0.2682,0.2627,0.2524,0.2486,0.2516,0.2369,0.2322,0.2483,0.2481,0.2479,0.2478,0,0.1617,0.1625,0.1657,0.1701,0.1743,0.1789,0.1847,0.1868,0.1953,0.1995,0.2066,0.213,0.2341,0.2432,0.2555,0.257,0.2545,0.2587,0.2601,0.2453,0.2254,0.219,0.2377,0.2463,0.2465,0.2466,0.2467,0.2467,0.1607,0.1623,0.1638,0.168,0.1705,0.1729,0.1736,0.1782,0.1809,0.1855,0.1958,0.2017,0.2227,0.2406,0.241,0.2448,0.2418,0.2375,0.2439,0.2303,0.2205,0.2343,0.237,0.2371,0.2372,0.2373,0.2373,0,0.1595,0.1604,0.1626,0.1647,0.1635,0.1678,0.1703,0.1683,0.167,0.1758,0.1788,0.1954,0.2064,0.2236,0.2377,0.2319,0.2164,0.2308,0.2137,0.2113,0.2304,0.2245,0.2183,0.2183,0.2183,0.2183,0.2183,0.2183,0.1586,0.1588,0.16,0.1577,0.1576,0.1538,0.1529,0.1502,0.1537,0.1575,0.1652,0.1757,0.2089,0.2334,0.2392,0.2333,0.2224,0.2106,0.2132,0.2348,0.2358,0.2368,0.2318,0.2273,0.2273,0.1789,0.1787,0.1785]},{"header":{"parameterUnit":"m.s-1","parameterCategory":2,"la1":30.2991,"la2":30.254,"lo1":-89.0895,"lo2":-89.0444,"dy":0.0017,"dx":0.0017,"nx":28,"ny":28,"refTime":"2026-02-05T09:00:00:Z","depth":"0","parameterNumber":3,"parameterNumberName":"V-component_of_CURRENTS"},"data":[0,0,0,0,0,0,0,0,0,0,0,0,0,0,0,0,0,0,0,0,0,0,0,0,0,0,0,0,0,0,0,0,0,0,0,0,0,0,0,0,0,0,0,0,0,0,0,0,0,0,0,0,0,0,0,0,0,0,0.0138,0.0136,0,0.0032,0.0031,0.003,-0.0024,-0.0024,-0.0025,-0.0025,-0.01,-0.0102,-0.0103,0,0,0,0,0,0,0,0,0,0,0,0,0,0.0246,0.0245,0.0138,0.0136,0.0134,0.0032,0.0031,0.003,-0.0023,-0.0024,-0.0025,-0.0026,-0.01,-0.0102,-0.0103,0,0,0,0,0,0,0,0,0,0,0,0,0,0.0182,0.0245,0.0138,0.009,0.0085,0.0032,0.0031,0.003,-0.0023,-0.0024,-0.0025,-0.0026,-0.0099,-0.0102,-0.0104,-0.0098,0,0,-0.011,-0.0111,0,0,0,0,0,0,0,0,0.0186,0.0179,0.0099,0.0094,0.0087,0.0011,0.0041,-0.0014,-0.0023,0.0024,-0.0025,-0.0026,-0.0064,-0.0069,-0.0078,-0.0102,-0.0105,-0.011,-0.0112,-0.0113,-0.0113,0,0,0,0,0,0,0,0.019,0.0183,0.0102,0.0097,0.009,0.0057,0.0048,0.0031,-0.0008,0.002,0.0014,-0.0007,-0.0066,-0.0076,-0.008,-0.0106,-0.011,-0.0112,-0.0113,-0.0114,-0.0118,-0.0117,0,0,0,0,0,0,0.0194,0.0187,0.0106,0.0099,0.0128,0.0056,0.0046,0.0041,-0.0008,-0.0019,-0.0006,-0.0009,-0.0072,-0.0078,-0.0083,-0.0042,-0.0113,-0.0115,-0.0116,-0.0119,-0.0118,-0.0116,0,0,0,0,0,0,0.0197,0.0189,0.011,0.0134,0.0121,0.0055,0.005,0.004,0.0023,-0.003,-0.0039,-0.0014,-0.0073,-0.008,-0.0093,-0.0047,-0.0115,-0.0117,-0.012,-0.0119,-0.0117,0.0017,0,0,0,0,0,0,0.0201,0.0191,0.0199,0.0135,0.012,0.0094,0.005,0.0038,0.0008,0.0003,-0.004,-0.0047,-0.0074,-0.009,-0.0095,-0.0051,-0.0119,-0.0122,-0.012,-0.0117,0.0011,0.0023,0.0033,0,0,0,0,0,0.0206,0.0227,0.0201,0.0191,0.0131,0.0094,0.0085,0.0037,0.0009,0.0017,-0.0018,-0.0046,-0.008,-0.0091,-0.0097,-0.0052,-0.0123,-0.012,-0.0118,0.0006,0.0021,0.0033,0,0,0,0,0,0,0.0294,0.0221,0.0192,0.0194,0.0149,0.0083,0.0086,0.0041,0.0019,0.002,-0.0036,-0.0045,-0.0036,-0.007,-0.0081,-0.0049,-0.0104,-0.0102,-0.0007,0.0006,0.0017,0.0063,-0.0121,0,0,0,0,0,0.0312,0.0302,0.023,0.0234,0.0217,0.015,0.0129,0.0096,0.0057,0.0045,0.0005,-0.0023,-0.0028,-0.0034,-0.0051,-0.0037,-0.0069,-0.0013,-0.0002,0.0008,0.004,0.0011,0.0024,-0.0108,-0.0108,-0.0108,0,0,0.0344,0.0304,0.0298,0.025,0.0217,0.0211,0.0139,0.0121,0.0125,0.0043,0.0047,0.0012,-0.0018,0.0004,0.0005,-0.0019,0.0028,0.0012,0.0021,0.0048,0.0016,0.0028,0.004,-0.0106,-0.0106,-0.0106,0,0,0.0396,0.0374,0.0375,0.0347,0.0294,0.0265,0.0259,0.0194,0.0182,0.0167,0.0124,0.0117,0.0081,0.0086,0.0081,0.0141,0.0085,0.0128,0.023,0.0202,0.0213,0.0223,0.0202,0.0208,0.0138,0.0138,0.0139,0,0.0436,0.0428,0.0374,0.0371,0.036,0.0294,0.0306,0.0292,0.023,0.0244,0.0187,0.0168,0.0131,0.0187,0.021,0.0173,0.0142,0.0186,0.0219,0.0228,0.0235,0.0211,0.0216,0.0145,0.0144,0.0144,0.0143,0,0.0472,0.0475,0.0484,0.0459,0.0453,0.0455,0.0421,0.0426,0.0391,0.0372,0.0393,0.0335,0.0328,0.0316,0.0283,0.0335,0.0292,0.0234,0.0191,0.0257,0.0226,0.023,0.0155,0.0152,0.015,0.0149,0,0,0.0521,0.051,0.051,0.0524,0.0499,0.0501,0.0541,0.056,0.0604,0.0551,0.059,0.0578,0.054,0.0533,0.0484,0.0467,0.0483,0.0385,0.038,0.0377,0.0426,0.0404,0.0404,0.0423,0.0424,0.0425,0.0386,0,0.0559,0.0587,0.057,0.062,0.0636,0.0621,0.0664,0.0685,0.0691,0.0717,0.0685,0.0693,0.0626,0.0614,0.0599,0.0507,0.0497,0.05,0.0353,0.035,0.0332,0.0409,0.0386,0.035,0.0388,0.0389,0.0389,0,0.058,0.0602,0.0653,0.0706,0.0714,0.0745,0.0825,0.0854,0.0902,0.0902,0.0921,0.0871,0.0871,0.0766,0.069,0.069,0.0588,0.0505,0.05,0.0442,0.0334,0.0288,0.0354,0.0258,0.0393,0.0393,0.0393,0,0.0615,0.066,0.0713,0.0722,0.0771,0.0816,0.0855,0.0919,0.0968,0.1018,0.1033,0.1028,0.0987,0.0891,0.0736,0.0705,0.0622,0.0543,0.0439,0.0434,0.0372,0.0361,0.0342,0.0492,0.0493,0.0493,0.0493,0,0.0643,0.0683,0.074,0.0761,0.0852,0.0873,0.0977,0.1019,0.1086,0.1153,0.1126,0.114,0.1007,0.0933,0.0796,0.0649,0.0667,0.0493,0.0437,0.0417,0.0411,0.0286,0.0233,0.0491,0.0491,0.0492,0.0492,0,0.0646,0.068,0.0743,0.0823,0.086,0.0923,0.1028,0.1107,0.1158,0.1234,0.1238,0.122,0.113,0.1002,0.0834,0.0713,0.0521,0.0508,0.0505,0.0452,0.0266,0.022,0.0177,0.0156,0.04,0.0399,0.0399,0,0.0651,0.0682,0.0777,0.0832,0.0869,0.0969,0.1043,0.113,0.1211,0.1272,0.1304,0.1249,0.1203,0.0994,0.0792,0.0595,0.0499,0.0436,0.038,0.0295,0.0202,0.0189,0.0174,0.0341,0.034,0.0339,0.0339,0,0.066,0.0686,0.0732,0.0844,0.0933,0.104,0.1151,0.1223,0.1317,0.1357,0.1389,0.1349,0.1164,0.096,0.0718,0.0572,0.0393,0.0413,0.0319,0.0177,0.0168,0.0107,0.033,0.0332,0.0333,0.0333,0.0333,0.0334,0.0659,0.0693,0.0761,0.0867,0.0965,0.1099,0.1189,0.1286,0.1383,0.1454,0.1425,0.1381,0.1131,0.0796,0.06,0.0291,0.0317,0.0167,0.0125,0.0125,0.0103,0.0333,0.0272,0.0273,0.0273,0.0273,0.0274,0,0.0667,0.0713,0.0798,0.0925,0.1024,0.1088,0.1253,0.1332,0.1419,0.148,0.1478,0.1347,0.099,0.0701,0.028,0.0043,-0.0015,-0.0071,-0.0104,-0.0102,0.0083,0.0077,-0.002,-0.002,-0.002,-0.002,-0.002,-0.0019,0.0673,0.0742,0.0791,0.0956,0.1044,0.1196,0.1288,0.1375,0.1457,0.1525,0.1533,0.1539,0.1397,0.0517,-0.0016,-0.0159,-0.0285,-0.034,-0.0363,-0.0271,-0.0253,-0.0235,-0.0252,-0.0417,-0.0417,-0.0522,-0.0524,-0.0525]}],[{"header":{"parameterUnit":"m.s-1","parameterCategory":2,"la1":30.2991,"la2":30.254,"lo1":-89.0895,"lo2":-89.0444,"dy":0.0017,"dx":0.0017,"nx":28,"ny":28,"refTime":"2026-02-05T09:00:00:Z","depth":"2","parameterNumber":2,"parameterNumberName":"U-component_of_CURRENTS"},"data":[0,0,0,0,0,0,0,0,0,0,0,0,0,0,0,0,0,0,0,0,0,0,0,0,0,0,0,0,0,0,0,0,0,0,0,0,0,0,0,0,0,0,0,0,0,0,0,0,0,0,0,0,0,0,0,0,0,0,0.1651,0.1652,0,0.1693,0.1693,0.1692,0.1723,0.1724,0.1725,0.1727,0.1829,0.183,0.1832,0,0,0,0,0,0,0,0,0,0,0,0,0,0.1562,0.1562,0.165,0.1652,0.1654,0.1693,0.1693,0.1692,0.1722,0.1724,0.1726,0.1727,0.1829,0.183,0.1832,0,0,0,0,0,0,0,0,0,0,0,0,0,0.159,0.1562,0.165,0.1683,0.1687,0.1694,0.1693,0.1692,0.1722,0.1724,0.1726,0.1728,0.1828,0.183,0.1832,0.1805,0,0,0.1839,0.184,0,0,0,0,0,0,0,0,0.1589,0.1592,0.1676,0.1681,0.1685,0.1716,0.17,0.1737,0.1722,0.1696,0.1727,0.1729,0.1803,0.1807,0.1793,0.181,0.1814,0.1839,0.1841,0.1841,0.1842,0,0,0,0,0,0,0,0.1587,0.159,0.1655,0.1678,0.1684,0.1685,0.169,0.1705,0.1729,0.1698,0.1704,0.1727,0.1805,0.179,0.1796,0.1816,0.1839,0.1841,0.1842,0.1843,0.1879,0.1878,0,0,0,0,0,0,0.1605,0.1588,0.1654,0.1658,0.1655,0.1686,0.1691,0.1694,0.1728,0.1738,0.1725,0.1729,0.1786,0.1793,0.18,0.1843,0.1841,0.1843,0.1845,0.1879,0.1879,0.1878,0,0,0,0,0,0,0.1603,0.161,0.1652,0.1635,0.1642,0.1686,0.1689,0.1694,0.1692,0.175,0.1759,0.1722,0.1787,0.1797,0.1829,0.1845,0.1844,0.1846,0.1879,0.1879,0.1878,0.1884,0,0,0,0,0,0,0.1599,0.1608,0.1595,0.1636,0.1644,0.1644,0.1688,0.1694,0.1709,0.1713,0.175,0.176,0.179,0.1825,0.1831,0.1848,0.1848,0.188,0.1879,0.1879,0.1884,0.1884,0.1883,0,0,0,0,0,0.1595,0.1558,0.1593,0.1602,0.1632,0.1644,0.1645,0.1677,0.1707,0.1684,0.1733,0.176,0.1825,0.1827,0.1833,0.1852,0.188,0.1879,0.1879,0.1885,0.1884,0.1883,0,0,0,0,0,0,0.1483,0.1561,0.1599,0.1581,0.1616,0.1654,0.1635,0.1673,0.1687,0.1696,0.1754,0.1767,0.1803,0.1814,0.1815,0.1856,0.1856,0.1857,0.1859,0.1858,0.1858,0.1913,0.185,0,0,0,0,0,0.1465,0.1477,0.1542,0.1528,0.1542,0.1592,0.1599,0.1628,0.1663,0.1669,0.1709,0.175,0.1798,0.1819,0.1844,0.1861,0.1875,0.1875,0.1874,0.1874,0.1921,0.1959,0.1968,0.1875,0.1875,0.1875,0,0,0.1427,0.1466,0.1476,0.151,0.1534,0.1561,0.1595,0.16,0.1636,0.168,0.1712,0.1746,0.1801,0.1831,0.1847,0.1848,0.1889,0.1873,0.1873,0.1921,0.196,0.1969,0.1978,0.1875,0.1875,0.1875,0,0,0.1387,0.1383,0.1407,0.1429,0.1481,0.1507,0.1516,0.1559,0.1583,0.1611,0.1678,0.1735,0.1756,0.1834,0.1872,0.188,0.1885,0.1864,0.1913,0.1948,0.1957,0.1966,0.1922,0.1927,0.1865,0.1865,0.1865,0,0.1353,0.1392,0.1405,0.1433,0.1465,0.1493,0.1529,0.1541,0.1595,0.1642,0.1616,0.1742,0.1773,0.1899,0.1905,0.1888,0.1875,0.1914,0.1951,0.196,0.1969,0.1923,0.1929,0.1865,0.1865,0.1865,0.1865,0,0.1354,0.1386,0.1382,0.1453,0.1459,0.1477,0.1525,0.1535,0.156,0.1616,0.1708,0.1753,0.185,0.1851,0.1884,0.1983,0.1938,0.1945,0.196,0.198,0.1928,0.1933,0.1865,0.1865,0.1865,0.1865,0,0,0.1329,0.139,0.1398,0.1454,0.1481,0.1501,0.1526,0.1603,0.1669,0.1688,0.1795,0.1871,0.1918,0.1968,0.2017,0.2056,0.2072,0.2028,0.203,0.1997,0.2088,0.1955,0.1948,0.2081,0.2084,0.2086,0.2,0,0.1363,0.1426,0.1445,0.1513,0.1557,0.1573,0.1603,0.1657,0.1699,0.1782,0.1863,0.1959,0.1956,0.2012,0.2055,0.2125,0.21,0.2092,0.2067,0.2065,0.1958,0.1957,0.1891,0.1803,0.2006,0.2007,0.2007,0,0.1397,0.1444,0.151,0.1595,0.1614,0.1643,0.1719,0.1757,0.1856,0.189,0.1995,0.2051,0.2189,0.2127,0.2225,0.2219,0.2144,0.2137,0.2133,0.2034,0.1947,0.1831,0.1806,0.2017,0.2016,0.2015,0.2015,0,0.1408,0.1504,0.1564,0.1585,0.1657,0.1698,0.1734,0.1806,0.1849,0.1985,0.2021,0.218,0.2254,0.2261,0.225,0.2241,0.2284,0.2262,0.2041,0.2027,0.1986,0.1964,0.2232,0.2232,0.2232,0.2232,0.2232,0,0.1446,0.1509,0.1585,0.1615,0.1694,0.1732,0.1812,0.1863,0.1943,0.2003,0.2097,0.2165,0.2289,0.232,0.2278,0.2196,0.2292,0.2062,0.2019,0.1971,0.195,0.217,0.2164,0.2229,0.223,0.223,0.2231,0,0.1455,0.1501,0.158,0.1667,0.1699,0.1748,0.182,0.187,0.1944,0.202,0.2059,0.219,0.2218,0.2245,0.2267,0.221,0.2156,0.2048,0.1945,0.1892,0.1851,0.1846,0.1835,0.183,0.1826,0.1822,0.1819,0,0.1474,0.1509,0.159,0.162,0.1667,0.1742,0.1773,0.1858,0.1897,0.201,0.204,0.2102,0.2071,0.206,0.2045,0.1927,0.1953,0.1753,0.1731,0.1863,0.1822,0.1824,0.1824,0.1642,0.1638,0.1635,0.1632,0,0.1495,0.1504,0.1538,0.1597,0.1647,0.1702,0.1764,0.1782,0.1864,0.189,0.1904,0.1885,0.1876,0.1801,0.1696,0.1625,0.1803,0.1671,0.1893,0.1742,0.1673,0.1635,0.1644,0.1602,0.1605,0.1607,0.1609,0.161,0.148,0.1496,0.1516,0.1575,0.161,0.1641,0.1649,0.1685,0.1691,0.1693,0.1738,0.1664,0.1645,0.1456,0.1395,0.1418,0.1474,0.1439,0.1455,0.1472,0.1456,0.1382,0.1249,0.125,0.1251,0.1252,0.1252,0,0.1447,0.147,0.1507,0.1545,0.1538,0.1596,0.1619,0.1577,0.1527,0.154,0.1482,0.13,0.1222,0.122,0.1211,0.1166,0.1223,0.1122,0.1222,0.1251,0.1277,0.1256,0.0993,0.0992,0.0991,0.099,0,0,0.1429,0.1442,0.1472,0.1473,0.1483,0.1439,0.1425,0.1353,0.1327,0.122,0.1187,0.1186,0.119,0.1074,0.1044,0.1041,0.1148,0.1012,0.1224,0.1373,0.1398,0.1461,0.1459,0,0,0,0,0]},{"header":{"parameterUnit":"m.s-1","parameterCategory":2,"la1":30.2991,"la2":30.254,"lo1":-89.0895,"lo2":-89.0444,"dy":0.0017,"dx":0.0017,"nx":28,"ny":28,"refTime":"2026-02-05T09:00:00:Z","depth":"2","parameterNumber":3,"parameterNumberName":"V-component_of_CURRENTS"},"data":[0,0,0,0,0,0,0,0,0,0,0,0,0,0,0,0,0,0,0,0,0,0,0,0,0,0,0,0,0,0,0,0,0,0,0,0,0,0,0,0,0,0,0,0,0,0,0,0,0,0,0,0,0,0,0,0,0,0,0.013,0.0128,0,0.0024,0.0024,0.0023,-0.003,-0.0031,-0.0032,-0.0032,-0.0115,-0.0117,-0.0118,0,0,0,0,0,0,0,0,0,0,0,0,0,0.024,0.0239,0.013,0.0128,0.0126,0.0024,0.0023,0.0023,-0.003,-0.0031,-0.0032,-0.0033,-0.0115,-0.0116,-0.0118,0,0,0,0,0,0,0,0,0,0,0,0,0,0.0176,0.0239,0.013,0.0082,0.0077,0.0024,0.0023,0.0022,-0.003,-0.0031,-0.0032,-0.0033,-0.0114,-0.0116,-0.0119,-0.0114,0,0,-0.0126,-0.0127,0,0,0,0,0,0,0,0,0.018,0.0173,0.0091,0.0086,0.0079,0.0003,0.0031,-0.0024,-0.003,0.0017,-0.0032,-0.0034,-0.0077,-0.0083,-0.0091,-0.0118,-0.0122,-0.0126,-0.0128,-0.0129,-0.0129,0,0,0,0,0,0,0,0.0184,0.0176,0.0095,0.0089,0.0082,0.005,0.0041,0.0021,-0.0017,0.0013,0.0007,-0.0015,-0.0079,-0.0089,-0.0094,-0.0123,-0.0126,-0.0128,-0.013,-0.0131,-0.0137,-0.0136,0,0,0,0,0,0,0.0187,0.0181,0.0098,0.0091,0.012,0.0049,0.0039,0.0034,-0.0018,-0.0029,-0.0014,-0.0017,-0.0084,-0.0091,-0.0097,-0.0063,-0.0129,-0.0131,-0.0132,-0.0138,-0.0137,-0.0135,0,0,0,0,0,0,0.019,0.0182,0.0102,0.0127,0.0114,0.0047,0.0042,0.0032,0.0016,-0.004,-0.0049,-0.0022,-0.0085,-0.0093,-0.0108,-0.0068,-0.0132,-0.0134,-0.014,-0.0138,-0.0136,-0.0015,0,0,0,0,0,0,0.0194,0.0184,0.0192,0.0128,0.0112,0.0084,0.0042,0.0031,0.0,-0.0004,-0.005,-0.0058,-0.0086,-0.0104,-0.011,-0.0072,-0.0136,-0.0142,-0.0139,-0.0137,-0.0021,-0.0009,0.0001,0,0,0,0,0,0.0199,0.0217,0.0194,0.0183,0.0123,0.0084,0.0075,0.0028,0.0001,0.0008,-0.0026,-0.0057,-0.0093,-0.0105,-0.0113,-0.0074,-0.0143,-0.014,-0.0137,-0.0025,-0.0011,0.0,0,0,0,0,0,0,0.028,0.021,0.0184,0.0183,0.0139,0.0073,0.0074,0.0031,0.0009,0.001,-0.0046,-0.0055,-0.0051,-0.0084,-0.0096,-0.007,-0.0121,-0.0119,-0.0033,-0.0021,-0.001,0.0035,-0.0138,0,0,0,0,0,0.0298,0.0288,0.0219,0.0219,0.0203,0.0138,0.0117,0.0084,0.0046,0.0034,-0.0007,-0.0035,-0.0043,-0.005,-0.0069,-0.0058,-0.0101,-0.0038,-0.0028,-0.0018,0.0012,-0.0029,-0.0019,-0.0126,-0.0126,-0.0126,0,0,0.0326,0.0288,0.0281,0.0234,0.0202,0.0194,0.0126,0.0107,0.0109,0.0031,0.0031,-0.0003,-0.0034,-0.0017,-0.0017,-0.004,-0.0013,-0.0015,-0.0006,0.002,-0.0025,-0.0014,-0.0005,-0.0124,-0.0124,-0.0125,0,0,0.037,0.035,0.035,0.0322,0.0271,0.0243,0.0237,0.0174,0.0161,0.0146,0.0104,0.0094,0.0057,0.0058,0.0052,0.0108,0.0041,0.0097,0.0193,0.0153,0.0161,0.0169,0.0116,0.0118,0.0106,0.0107,0.0107,0,0.0405,0.0397,0.0348,0.0342,0.0331,0.0269,0.0278,0.0264,0.0204,0.0216,0.0163,0.0141,0.0102,0.0151,0.0172,0.0136,0.0093,0.0149,0.0168,0.0174,0.0179,0.0124,0.0124,0.0113,0.0112,0.0112,0.0111,0,0.0434,0.0437,0.0443,0.042,0.0412,0.0412,0.038,0.0384,0.0352,0.0333,0.035,0.0292,0.0286,0.0271,0.0239,0.0279,0.0228,0.0182,0.0139,0.0198,0.0135,0.0133,0.0122,0.012,0.0118,0.0116,0,0,0.0476,0.0465,0.0465,0.048,0.0453,0.0456,0.0489,0.0506,0.055,0.0496,0.0532,0.0515,0.0482,0.0474,0.0427,0.0399,0.0384,0.032,0.0315,0.0276,0.0286,0.027,0.0265,0.0335,0.0336,0.0336,0.0222,0,0.0509,0.0533,0.0516,0.0563,0.0577,0.0564,0.0601,0.062,0.0628,0.0652,0.0618,0.0626,0.0562,0.0553,0.0526,0.0426,0.0388,0.0419,0.0229,0.0224,0.0209,0.0266,0.0244,0.0143,0.0219,0.0219,0.0219,0,0.0526,0.0546,0.0592,0.0644,0.0652,0.0681,0.0759,0.0785,0.0829,0.083,0.0848,0.0801,0.079,0.0689,0.0578,0.0599,0.0465,0.0368,0.0359,0.031,0.0207,0.0098,0.0136,0.0215,0.0215,0.0215,0.0216,0,0.0559,0.0601,0.0652,0.066,0.0705,0.075,0.0788,0.0848,0.0895,0.0945,0.0962,0.0947,0.0905,0.0781,0.0593,0.058,0.0428,0.0372,0.0232,0.0227,0.0158,0.0148,0.0274,0.0274,0.0274,0.0274,0.0275,0,0.0583,0.0622,0.068,0.07,0.079,0.0808,0.0912,0.0952,0.1016,0.1079,0.1054,0.1064,0.092,0.081,0.064,0.0448,0.0459,0.0275,0.0213,0.0198,0.0193,0.0215,0.021,0.027,0.0271,0.0272,0.0272,0,0.0585,0.0618,0.068,0.0759,0.0797,0.086,0.0966,0.1043,0.1094,0.1165,0.1171,0.1145,0.0984,0.0813,0.0588,0.0498,0.0312,0.0219,0.0214,0.0156,0.0124,0.0126,0.0087,0.0086,0.0085,0.0084,0.0083,0,0.059,0.0619,0.0715,0.0771,0.0809,0.091,0.0983,0.1069,0.1147,0.12,0.1227,0.1111,0.0997,0.0706,0.0503,0.0231,0.02,0.0098,0.0088,0.017,0.0112,0.0116,0.0119,0.0021,0.002,0.0019,0.0018,0,0.0597,0.0623,0.0667,0.0782,0.0874,0.0982,0.1092,0.1158,0.1247,0.1269,0.1248,0.115,0.0875,0.0609,0.0318,0.0156,0.0162,0.0073,0.0149,0.0091,0.0104,0.0048,0.0054,0.001,0.0011,0.0011,0.0012,0.0012,0.0595,0.0628,0.0695,0.0806,0.0907,0.1039,0.1128,0.1209,0.1283,0.1304,0.1227,0.1075,0.0797,0.038,0.0159,0.0021,0.0021,-0.0025,-0.0021,-0.0016,0.0017,0.003,-0.0075,-0.0074,-0.0074,-0.0074,-0.0073,0,0.0596,0.0647,0.0735,0.0866,0.0965,0.1035,0.1192,0.1245,0.1292,0.127,0.1181,0.0869,0.0571,0.031,0.0082,-0.0073,-0.0073,-0.0113,-0.0093,-0.0085,-0.0078,-0.0046,-0.0156,-0.0156,-0.0157,-0.0157,0,0,0.06,0.0672,0.0727,0.0899,0.0989,0.1131,0.1216,0.1246,0.1263,0.1196,0.1112,0.0902,0.0594,0.0384,0.0124,0.0016,0.0026,-0.0002,0.0075,0.0134,0.0145,-0.0029,0.0028,0,0,0,0,0]}],[{"header":{"parameterUnit":"m.s-1","parameterCategory":2,"la1":30.2991,"la2":30.254,"lo1":-89.0895,"lo2":-89.0444,"dy":0.0017,"dx":0.0017,"nx":28,"ny":28,"refTime":"2026-02-05T09:00:00:Z","depth":"4","parameterNumber":2,"parameterNumberName":"U-component_of_CURRENTS"},"data":[0,0,0,0,0,0,0,0,0,0,0,0,0,0,0,0,0,0,0,0,0,0,0,0,0,0,0,0,0,0,0,0,0,0,0,0,0,0,0,0,0,0,0,0,0,0,0,0,0,0,0,0,0,0,0,0,0,0,-0.021,-0.0211,0,-0.0277,-0.0278,-0.0278,-0.0303,-0.0302,-0.0302,-0.0302,-0.0352,-0.0354,-0.0355,0,0,0,0,0,0,0,0,0,0,0,0,0,-0.0132,-0.0133,-0.021,-0.0211,-0.0211,-0.0277,-0.0278,-0.0279,-0.0303,-0.0302,-0.0302,-0.0302,-0.0352,-0.0354,-0.0355,0,0,0,0,0,0,0,0,0,0,0,0,0,-0.0179,-0.0133,-0.021,-0.0231,-0.0234,-0.0276,-0.0278,-0.0279,-0.0303,-0.0302,-0.0302,-0.0302,-0.0351,-0.0353,-0.0356,-0.0378,0,0,-0.0363,-0.0364,0,0,0,0,0,0,0,0,-0.0176,-0.0182,-0.0227,-0.023,-0.0233,-0.0281,-0.0268,-0.0311,-0.0303,-0.0277,-0.0302,-0.0302,-0.0327,-0.0331,-0.0345,-0.0381,-0.0383,-0.0363,-0.0365,-0.0366,-0.0366,0,0,0,0,0,0,0,-0.0173,-0.0179,-0.0237,-0.0228,-0.0231,-0.0247,-0.0253,-0.0277,-0.0303,-0.0279,-0.0281,-0.0288,-0.0328,-0.0343,-0.0347,-0.0383,-0.0363,-0.0365,-0.0367,-0.0368,-0.032,-0.0317,0,0,0,0,0,0,-0.0163,-0.0176,-0.0235,-0.0239,-0.0203,-0.0249,-0.0256,-0.0266,-0.0303,-0.0309,-0.0288,-0.0289,-0.0339,-0.0344,-0.0348,-0.0255,-0.0366,-0.0368,-0.0369,-0.0322,-0.0319,-0.0316,0,0,0,0,0,0,-0.0161,-0.0168,-0.0232,-0.0208,-0.0218,-0.025,-0.0262,-0.0267,-0.0258,-0.031,-0.0315,-0.027,-0.0339,-0.0345,-0.0337,-0.0261,-0.0369,-0.0371,-0.0326,-0.0321,-0.0318,-0.0146,0,0,0,0,0,0,-0.0159,-0.0167,-0.0139,-0.0208,-0.0218,-0.0242,-0.0262,-0.0269,-0.0265,-0.0265,-0.0297,-0.0303,-0.0339,-0.0333,-0.0339,-0.0267,-0.0373,-0.0329,-0.0324,-0.0319,-0.0155,-0.0136,-0.012,0,0,0,0,0,-0.0156,-0.0074,-0.0138,-0.0143,-0.0191,-0.0242,-0.0248,-0.0271,-0.0263,-0.026,-0.0266,-0.0301,-0.0304,-0.0333,-0.0341,-0.0267,-0.0331,-0.0325,-0.0319,-0.0162,-0.014,-0.0121,0,0,0,0,0,0,0.0027,-0.0073,-0.0142,-0.0085,-0.0175,-0.0245,-0.0195,-0.0251,-0.0255,-0.0229,-0.0283,-0.029,-0.0252,-0.0288,-0.0319,-0.0238,-0.0317,-0.0312,-0.0195,-0.0174,-0.0157,-0.0163,-0.0375,0,0,0,0,0,0.0056,0.0044,-0.0061,-0.0035,-0.0044,-0.0131,-0.0139,-0.0188,-0.0216,-0.0216,-0.0191,-0.0196,-0.0238,-0.0229,-0.0245,-0.0209,-0.0267,-0.0162,-0.0145,-0.013,-0.0139,-0.0182,-0.017,-0.0296,-0.0296,-0.0297,0,0,0.0116,0.007,0.0057,-0.0007,-0.0045,-0.0078,-0.013,-0.0134,-0.0162,-0.0219,-0.0127,-0.0134,-0.0219,-0.0173,-0.0156,-0.0188,-0.0112,-0.0122,-0.0109,-0.0128,-0.0174,-0.0162,-0.0152,-0.0292,-0.0293,-0.0294,0,0,0.018,0.021,0.0176,0.0115,0.0038,0.0018,0.0016,-0.0012,-0.0006,0.0026,-0.0024,-0.0,0.0033,-0.0032,-0.0079,0.0014,-0.003,0.0058,0.0152,0.0113,0.0122,0.0129,0.0119,0.0124,0.0078,0.0079,0.0079,0,0.023,0.0195,0.0165,0.0109,0.0105,0.0063,0.0037,0.0021,0.0009,0.003,0.0093,0.01,0.0076,-0.0013,0.007,0.0049,0.0048,0.0079,0.0134,0.0139,0.0144,0.013,0.0133,0.0088,0.0087,0.0086,0.0085,0,0.022,0.0195,0.0217,0.0122,0.0126,0.0126,0.0085,0.0156,0.0234,0.0202,0.0238,0.0215,0.0206,0.023,0.0199,0.021,0.021,0.0151,0.0079,0.0167,0.0148,0.0148,0.0101,0.0098,0.0095,0.0093,0,0,0.0287,0.0205,0.0199,0.0114,0.0145,0.0096,0.0195,0.0198,0.0205,0.0293,0.0297,0.0317,0.0343,0.029,0.0246,0.0258,0.0342,0.0282,0.0276,0.0269,0.0316,0.0286,0.0282,0.0328,0.0327,0.0327,0.0306,0,0.0262,0.0139,0.017,0.0097,0.0049,0.0122,0.019,0.0194,0.0278,0.0312,0.0278,0.0277,0.0329,0.0351,0.037,0.0251,0.0346,0.0355,0.0232,0.0228,0.0187,0.028,0.0327,0.0306,0.0306,0.0305,0.0305,0,0.0234,0.0143,0.0076,0.0016,0.0021,0.0028,0.0141,0.0185,0.0244,0.0313,0.0345,0.0314,0.026,0.0355,0.0264,0.0282,0.0389,0.0367,0.0363,0.0263,0.0196,0.0187,0.0304,0.0304,0.0304,0.0304,0.0304,0,0.0225,0.009,0.004,0.0008,-0.0026,0.0022,0.0099,0.0205,0.0236,0.0316,0.0348,0.0268,0.0226,0.025,0.02,0.0287,0.0112,0.0181,0.0276,0.0273,0.0225,0.0216,0.0303,0.0303,0.0303,0.0303,0.0303,0,0.0219,0.0145,-0.001,-0.0052,-0.0094,-0.0049,0.0001,0.0118,0.0201,0.0214,0.0326,0.0276,0.0235,0.011,0.0152,0.0108,0.006,0.0305,0.0265,0.0307,0.0307,0.0227,0.0219,0.0302,0.0303,0.0303,0.0303,0,0.0233,0.0153,0.0039,-0.0059,-0.0097,-0.0094,-0.0056,-0.0034,0.0119,0.0144,0.0178,0.0218,0.0148,0.0039,-0.0005,0.0026,-0.0023,0.0053,0.0054,0.001,0.0229,0.023,0.0204,0.0202,0.0201,0.02,0.02,0,0.0189,0.013,0.001,-0.0059,-0.0093,-0.0136,-0.0123,-0.0029,0.0009,0.0087,0.0085,0.0066,0.0089,-0.0062,-0.0116,-0.0124,-0.0018,-0.0036,0.0227,0.0254,0.0218,0.0221,0.0223,0.0198,0.0198,0.0197,0.0197,0,0.0066,0.0092,0.0007,-0.0076,-0.0139,-0.019,-0.0174,-0.0173,-0.0036,-0.0034,0.0069,0.0098,0.0037,-0.0009,-0.0053,-0.0035,-0.0096,-0.0042,-0.0031,0.0218,0.0247,0.0213,0.0216,0.0194,0.0194,0.0194,0.0195,0,-0.0031,-0.0059,-0.0116,-0.0154,-0.0211,-0.0163,-0.0169,-0.0143,-0.0093,0.0026,-0.001,0.0036,0.0009,0.0039,-0.0071,-0.0067,0.0111,0.0203,0.0205,0.0209,0.0214,0.0252,0.0179,0,0,0,0,0,-0.0165,-0.0155,-0.0226,-0.0219,-0.0206,-0.02,-0.0187,-0.0173,-0.0151,-0.0041,0.0024,0.0019,0.0066,0.0044,0.0086,-0.0038,0.0058,0.0008,0.0152,0.0173,0.0178,0.018,0,0,0,0,0,0,-0.0257,-0.0321,-0.026,-0.0254,-0.0207,-0.0188,-0.0139,-0.011,-0.0023,0.0007,0.0032,0.0049,0.0063,0.0049,0.0092,0.0083,0.0192,0.0003,0.0005,0.0171,0.0175,0.0178,0.0182,0,0,0,0,0]},{"header":{"parameterUnit":"m.s-1","parameterCategory":2,"la1":30.2991,"la2":30.254,"lo1":-89.0895,"lo2":-89.0444,"dy":0.0017,"dx":0.0017,"nx":28,"ny":28,"refTime":"2026-02-05T09:00:00:Z","depth":"4","parameterNumber":3,"parameterNumberName":"V-component_of_CURRENTS"},"data":[0,0,0,0,0,0,0,0,0,0,0,0,0,0,0,0,0,0,0,0,0,0,0,0,0,0,0,0,0,0,0,0,0,0,0,0,0,0,0,0,0,0,0,0,0,0,0,0,0,0,0,0,0,0,0,0,0,0,0.0487,0.0487,0,0.048,0.048,0.048,0.0552,0.0554,0.0556,0.0558,0.0546,0.0544,0.0542,0,0,0,0,0,0,0,0,0,0,0,0,0,0.0446,0.0447,0.0487,0.0487,0.0487,0.048,0.048,0.048,0.0551,0.0554,0.0556,0.0559,0.0547,0.0545,0.0542,0,0,0,0,0,0,0,0,0,0,0,0,0,0.0453,0.0447,0.0487,0.0523,0.0526,0.048,0.048,0.048,0.0551,0.0554,0.0557,0.056,0.0548,0.0545,0.0542,0.0459,0,0,0.0531,0.053,0,0,0,0,0,0,0,0,0.0453,0.0454,0.0518,0.052,0.0524,0.0521,0.0461,0.0473,0.055,0.054,0.0558,0.0561,0.0536,0.0534,0.0524,0.0458,0.0458,0.0531,0.0529,0.0528,0.0527,0,0,0,0,0,0,0,0.0452,0.0454,0.0484,0.0517,0.0521,0.0499,0.0504,0.0463,0.052,0.0541,0.0547,0.0546,0.0538,0.0527,0.0524,0.0458,0.0531,0.0528,0.0526,0.0525,0.039,0.0388,0,0,0,0,0,0,0.0458,0.0454,0.0484,0.0483,0.0496,0.0498,0.0504,0.0518,0.0521,0.0524,0.0544,0.055,0.0531,0.0528,0.0524,0.0447,0.0528,0.0524,0.0523,0.0392,0.039,0.0388,0,0,0,0,0,0,0.0457,0.0461,0.0484,0.0469,0.047,0.0496,0.0511,0.0516,0.0572,0.0523,0.0527,0.0602,0.0534,0.0529,0.052,0.0446,0.0523,0.052,0.0393,0.0391,0.0389,0.0278,0,0,0,0,0,0,0.0456,0.0461,0.0486,0.047,0.0472,0.0494,0.0508,0.0514,0.0563,0.0573,0.0572,0.0571,0.0536,0.0525,0.0517,0.0443,0.0517,0.0395,0.0392,0.0389,0.0284,0.0272,0.0262,0,0,0,0,0,0.0455,0.0447,0.0487,0.0491,0.0501,0.0495,0.0495,0.0521,0.0564,0.0585,0.0577,0.0574,0.05,0.0522,0.0512,0.0435,0.0397,0.0393,0.039,0.0289,0.0275,0.0263,0,0,0,0,0,0,0.0426,0.0454,0.0497,0.05,0.0526,0.0509,0.0504,0.0554,0.0565,0.0571,0.0562,0.0557,0.0519,0.0508,0.0534,0.0392,0.0443,0.0438,0.037,0.0356,0.0346,0.0333,0.0515,0,0,0,0,0,0.0437,0.0443,0.0482,0.048,0.0494,0.0522,0.0531,0.0558,0.0556,0.057,0.0542,0.0515,0.048,0.0455,0.042,0.0346,0.0364,0.0292,0.0281,0.0271,0.0257,0.0235,0.0221,0.0376,0.0376,0.0376,0,0,0.0415,0.0433,0.0436,0.0476,0.0483,0.0464,0.0535,0.0544,0.0518,0.0557,0.0489,0.0488,0.0464,0.0373,0.0352,0.0361,0.024,0.0267,0.0259,0.0249,0.023,0.0215,0.0201,0.0374,0.0374,0.0375,0,0,0.035,0.0403,0.0393,0.0408,0.0441,0.0442,0.0469,0.0471,0.0477,0.0434,0.0443,0.041,0.0344,0.0284,0.0259,0.0176,0.0203,0.0172,0.0075,0.0054,0.0041,0.0029,0.0046,0.0037,0.0143,0.0142,0.0142,0,0.0334,0.0334,0.0386,0.0372,0.0365,0.0439,0.0418,0.0406,0.0396,0.0383,0.0402,0.0297,0.0281,0.0177,0.0138,0.0142,0.0167,0.0121,0.0038,0.0027,0.0017,0.0038,0.0029,0.0137,0.0137,0.0138,0.0138,0,0.0271,0.027,0.0248,0.0256,0.0257,0.0243,0.0249,0.024,0.0252,0.0238,0.0172,0.0129,0.0081,0.0046,0.0061,-0.0034,0.0021,0.0046,0.0068,-0.0005,0.0022,0.0015,0.0128,0.013,0.0132,0.0134,0,0,0.0238,0.0217,0.0213,0.02,0.0205,0.0191,0.0136,0.0121,0.0102,0.0047,-0.0008,-0.0102,-0.0081,-0.0106,-0.0109,-0.0161,-0.0209,-0.0094,-0.0093,-0.0082,-0.0217,-0.0195,-0.0199,-0.0187,-0.019,-0.0191,-0.0165,0,0.0188,0.0137,0.0134,0.006,0.0041,0.006,0.0003,-0.001,-0.0018,-0.0072,-0.0115,-0.0162,-0.0151,-0.0162,-0.0219,-0.0206,-0.0233,-0.0216,-0.0143,-0.0141,-0.0118,-0.021,-0.0198,-0.017,-0.0172,-0.0173,-0.0174,0,0.015,0.012,0.0064,-0.0008,-0.0015,-0.0057,-0.0093,-0.0126,-0.0166,-0.0171,-0.0225,-0.0227,-0.032,-0.0277,-0.0337,-0.0315,-0.0267,-0.0264,-0.0261,-0.0211,-0.0134,-0.0084,-0.0185,-0.0185,-0.0184,-0.0183,-0.0182,0,0.0147,0.0061,0.0019,-0.0002,-0.0063,-0.0091,-0.0117,-0.0146,-0.0168,-0.0206,-0.0222,-0.0313,-0.0347,-0.0354,-0.0329,-0.0321,-0.0363,-0.0343,-0.0281,-0.0276,-0.025,-0.0238,-0.0357,-0.0357,-0.0357,-0.0357,-0.0357,0,0.0119,0.0067,0.0012,-0.0001,-0.0071,-0.0101,-0.0157,-0.0169,-0.0207,-0.0233,-0.0254,-0.0297,-0.0362,-0.0383,-0.0352,-0.0346,-0.0368,-0.0319,-0.029,-0.0292,-0.0286,-0.0253,-0.0241,-0.0356,-0.0356,-0.0357,-0.0357,0,0.0121,0.0094,0.0034,-0.0033,-0.0059,-0.0094,-0.0166,-0.0209,-0.0208,-0.0239,-0.0245,-0.0304,-0.0334,-0.0365,-0.0381,-0.0368,-0.0357,-0.0318,-0.0303,-0.0267,-0.0248,-0.0242,-0.0297,-0.0297,-0.0296,-0.0296,-0.0296,0,0.0123,0.0103,0.0034,-0.0004,-0.0037,-0.0102,-0.0149,-0.0186,-0.0211,-0.023,-0.0246,-0.029,-0.0317,-0.033,-0.0368,-0.0342,-0.0313,-0.0294,-0.0317,-0.0287,-0.0252,-0.0247,-0.0242,-0.0295,-0.0295,-0.0295,-0.0295,0,0.0113,0.0101,0.005,-0.0004,-0.0062,-0.0144,-0.0196,-0.0203,-0.022,-0.0241,-0.0218,-0.023,-0.0276,-0.0321,-0.0295,-0.0269,-0.0331,-0.0289,-0.0291,-0.0312,-0.0285,-0.0249,-0.0245,-0.0293,-0.0293,-0.0293,-0.0293,0,0.0092,0.0068,0.0025,-0.0036,-0.0104,-0.0153,-0.0188,-0.0218,-0.023,-0.0207,-0.0205,-0.0221,-0.026,-0.0279,-0.0255,-0.0252,-0.0259,-0.0239,-0.0243,-0.0245,-0.0249,-0.0208,-0.0193,0,0,0,0,0,0.0064,0.0039,-0.0017,-0.0077,-0.0141,-0.0167,-0.0219,-0.0243,-0.0234,-0.0198,-0.0184,-0.0191,-0.0195,-0.0226,-0.0218,-0.0284,-0.0288,-0.0277,-0.0272,-0.0285,-0.0286,-0.0301,0,0,0,0,0,0,0.0029,-0.0008,-0.002,-0.0098,-0.0131,-0.0201,-0.0219,-0.022,-0.0192,-0.0168,-0.0176,-0.0165,-0.0191,-0.018,-0.0205,-0.0215,-0.0205,-0.0288,-0.0287,-0.0284,-0.0285,-0.0287,-0.0302,0,0,0,0,0]}]]